SCP
0 0 0 0 0 0 0 0 0 0 0 0 0 0 0 0 0 0 0 1 1 1 1 1 0 1 1 0 1 0 0 0 0 0 0 0 0 0 0 0 0 0 0
-0 0 0 0 0 0 0 0 0 0 0 0 0 0 0 0 0 0 0 0 1 0 0 1 1 1 0 0 1 0 0 0 0 0 0 0 0 0 0 0 0 0 0
0 0 0 0 0 0 0 0 0 0 0 0 0 0 0 0 0 0 0 0 0 0 0 0 0 0 1 0 0 1 0 0 0 0 0 0 0 0 0 0 0 0 0
0 0 0 0 0 0 0 0 0 0 0 0 0 0 0 0 0 0 0 0 0 0 0 0 0 0 -0 0 0 0 0 0 0 0 0 0 0 0 0 0 0 0 0
0 0 0 0 0 0 0 0 0 0 0 0 0 0 0 0 0 0 0 0 0 0 0 0 -0 -0 -0 -0 -0 0 0 0 0 0 0 0 0 0 0 0 0 0 0
0 0 0 0 0 0 0 0 0 0 0 0 0 0 0 0 0 0 0 0 0 0 0 0 0 0 0 -0 0 0 0 0 0 0 0 0 0 0 0 0 0 0 0
0 0 0 0 0 0 0 0 0 0 0 0 0 0 0 0 0 0 0 0 0 0 0 0 0 0 0 0 0 0 0 0 0 0 0 0 0 0 0 0 0 0 0
0 0 0 0 0 0 0 0 0 0 0 0 0 0 0 0 0 0 0 0 0 0 0 0 0 0 0 0 0 0 0 0 0 0 0 0 0 0 0 0 0 0 0
0 0 0 0 0 0 0 0 0 0 0 0 0 0 0 0 0 0 0 0 0 0 0 0 0 0 0 0 0 0 0 0 0 0 0 0 0 0 0 0 0 0 0
0 0 0 0 0 0 0 0 0 0 0 0 0 0 0 0 0 0 0 0 0 0 0 0 0 0 0 0 0 0 0 0 0 0 0 0 0 0 0 0 0 0 0
0 0 0 0 -0 -0 0 -0 0 0 0 0 0 0 0 0 0 0 0 0 0 0 0 0 0 0 0 0 0 0 0 0 0 0 0 -0 0 0 0 0 0 0 0
0 0 0 0 -0 -0 -0 -0 0 0 0 0 0 0 0 0 0 -0 -0 0 0 0 0 0 0 0 0 0 0 0 0 0 0 0 0 0 0 0 0 0 0 0 0
0 0 0 0 0 -0 -0 -0 0 0 0 0 0 0 0 0 0 0 -0 -0 0 0 0 0 0 0 0 0 0 0 0 0 0 0 0 0 0 0 0 0 0 0 0
0 0 0 0 0 -0 -0 -0 0 0 0 0 0 0 0 0 0 0 -0 -0 0 0 0 0 0 0 0 0 0 0 0 0 0 0 0 0 0 0 0 0 0 0 0
0 0 0 0 0 -0 -0 -0 0 -0 0 0 0 -0 0 0 0 -0 -0 0 0 0 0 0 0 0 0 0 0 0 0 0 0 0 0 0 0 0 0 0 0 0 0
0 0 0 0 0 -0 -0 -0 0 -0 -0 0 0 0 0 0 0 0 0 0 0 0 0 0 0 0 0 0 0 0 0 0 0 0 0 0 0 0 0 0 0 0 0
0 0 -0 0 0 -0 0 0 0 0 -0 0 0 0 0 0 0 0 0 0 0 0 0 0 0 0 0 0 0 0 0 0 0 -0 -0 -0 -0 -0 0 0 0 0 0
0 0 0 0 -0 -0 -0 -0 0 0 0 0 0 0 0 0 -0 0 0 0 0 0 0 0 0 0 0 0 0 0 0 0 -0 0 -0 -0 -0 -0 -0 -0 0 0 0
0 0 0 0 -0 -0 -0 0 0 0 0 0 0 0 0 0 0 0 0 0 0 0 0 0 0 0 0 0 0 0 0 0 -0 0 -0 -0 -0 -0 -0 -0 0 0 0
0 0 0 0 0 -0 0 0 0 0 0 0 0 0 0 0 0 0 0 0 0 0 0 0 0 0 0 0 0 0 0 -0 -0 0 -0 -0 -0 -0 -0 -0 -0 0 0
0 0 0 -0 -0 -0 0 0 0 0 0 0 0 0 0 0 0 0 0 0 0 0 0 0 0 0 0 0 0 0 0 -0 -0 -0 0 -0 0 0 0 0 0 -0 0
-0 0 -0 0 -0 0 0 0 0 0 0 0 0 0 0 0 0 0 0 0 0 0 0 0 0 0 0 0 0 -0 -0 -0 -0 -0 -0 0 0 0 0 0 0 0 0
-0 -0 0 0 -0 0 0 0 0 0 0 0 0 0 0 0 0 0 0 0 0 0 0 0 0 0 -0 -0 -0 -0 -0 -0 -0 0 0 0 0 0 0 0 0 0 0
-0 -0 -0 -0 -0 -0 0 -0 -0 0 0 0 0 0 0 0 -0 -0 -0 -0 0 0 -0 -0 -0 -0 -0 -0 -0 -0 0 0 0 0 0 0 0 0 0 0 0 0 0
-0 -0 0 -0 0 0 0 0 -0 -0 0 0 0 0 0 -0 -0 -0 -0 -0 0 0 0 -0 -0 -0 0 -0 -0 0 0 0 0 0 0 0 0 0 0 0 0 0 0
0 -0 -0 0 0 0 0 0 0 -0 -0 -0 0 0 -0 -0 -0 -0 -0 -0 0 0 0 0 0 -0 -0 0 -0 0 0 0 0 0 0 0 0 0 0 0 0 0 0
Wind_Speed_500mb
44 46 37 33 32 33 31 34 38 44 41 41 39 38 34 32 24 27 33 38 41 47 51 48 47 49 49 49 43 30 26 26 29 28 30 31 30 27 24 21 16 14 12
44 35 36 32 31 30 30 31 30 35 42 45 51 47 37 47 35 25 34 37 37 43 51 55 51 51 48 49 45 34 27 27 32 34 35 32 32 29 22 20 16 14 12
33 36 36 34 34 33 31 31 31 30 33 41 47 44 43 49 56 51 40 37 44 50 45 52 61 51 53 49 39 41 19 35 37 37 36 35 32 30 25 21 18 15 13
32 32 34 32 32 38 35 31 31 30 29 32 36 40 49 48 47 56 55 35 38 36 43 41 42 48 61 71 44 37 32 42 41 40 36 34 34 31 28 24 19 16 13
24 30 30 32 36 39 38 35 31 31 32 33 34 39 46 46 44 51 58 53 46 40 38 34 34 33 35 42 50 43 40 41 41 39 37 37 35 34 30 27 22 17 13
26 29 30 32 37 37 38 39 37 29 32 33 39 41 41 53 58 61 58 63 64 49 44 38 35 40 39 37 40 48 48 45 41 43 39 37 37 36 30 27 20 14 12
28 30 32 35 36 38 42 44 38 30 24 25 34 39 43 40 45 56 58 55 59 61 52 38 40 36 35 35 38 44 50 47 54 48 45 42 38 33 27 26 18 15 13
27 28 32 36 37 38 36 40 31 29 24 18 23 28 24 25 25 30 38 44 51 53 57 53 45 36 39 37 34 40 43 45 39 44 52 44 39 30 26 22 16 13 13
24 28 28 32 34 33 38 39 34 27 25 22 20 19 12 7 16 10 16 23 34 41 44 52 43 34 29 31 33 37 46 42 37 46 67 54 34 27 24 22 16 11 12
26 28 24 29 28 31 34 35 36 32 30 30 28 26 27 32 16 12 11 13 18 29 37 49 43 35 31 28 29 28 37 43 32 29 20 32 24 21 25 21 14 14 14
26 25 26 26 22 28 28 34 35 32 32 32 27 27 29 31 33 38 36 24 16 17 30 37 39 35 29 26 30 22 22 28 28 40 30 28 26 28 23 19 15 16 15
25 26 23 22 21 25 30 33 35 30 30 27 23 26 30 38 27 26 35 34 19 9 24 31 35 31 25 31 26 30 37 25 26 34 37 33 27 24 19 18 16 15 19
27 28 16 19 19 23 29 30 32 26 25 29 28 28 29 33 32 29 32 19 21 13 14 28 29 30 25 27 31 34 27 28 30 29 27 34 19 17 20 21 21 19 23
31 16 16 17 19 24 23 24 27 28 27 34 28 22 20 23 19 24 26 30 24 21 24 24 22 27 27 32 40 36 32 34 32 28 25 18 19 22 21 23 24 24 27
16 12 14 14 18 21 22 24 24 27 27 31 34 30 19 19 7 8 18 25 35 24 36 30 33 35 43 41 34 34 31 30 25 20 16 16 16 17 17 17 18 22 23
24 20 13 13 14 21 21 27 20 22 26 33 36 39 22 28 31 15 22 27 36 33 27 30 41 43 44 39 34 28 28 25 20 17 15 11 7 10 11 12 15 21 18
22 30 20 13 12 17 19 23 21 18 20 22 23 36 32 34 34 40 31 31 28 34 48 41 40 39 42 34 32 29 26 24 26 20 14 9 5 3 9 11 13 16 19
21 20 26 14 16 13 15 18 24 18 14 9 19 24 30 36 41 38 40 34 40 33 40 45 41 38 33 30 29 29 27 23 19 16 12 9 7 5 4 7 9 12 16
14 15 19 23 15 9 9 13 19 22 17 16 18 21 25 25 30 27 33 35 29 26 28 34 36 33 31 29 28 26 23 19 16 15 14 12 10 10 10 11 11 10 13
19 12 15 21 8 3 3 9 12 17 18 22 24 25 25 24 25 27 24 25 27 29 26 24 28 27 24 22 21 19 14 11 11 12 15 19 19 18 16 16 15 17 17
19 15 11 11 7 6 2 5 7 8 12 13 17 18 23 27 23 21 18 18 15 13 18 19 19 19 18 15 12 9 5 5 6 11 15 19 18 18 20 22 22 24 23
20 18 11 8 7 5 6 7 5 9 8 7 12 17 19 20 18 18 17 11 10 10 10 7 10 12 11 8 7 8 10 10 11 14 14 16 18 13 15 15 16 25 28
16 16 14 9 6 5 5 6 6 5 7 6 3 8 11 14 15 12 9 9 8 8 7 5 5 8 9 9 11 12 12 12 13 11 9 11 20 21 21 21 14 16 22
14 13 14 13 9 7 6 7 8 4 6 5 4 4 4 11 17 13 2 2 2 1 3 2 3 5 10 11 10 12 17 14 8 9 12 14 16 20 25 24 23 22 24
16 10 17 18 17 19 19 18 14 14 10 5 9 7 10 9 10 16 8 4 8 9 8 7 6 6 7 10 6 5 4 8 3 10 14 16 13 14 17 20 23 27 25
18 18 13 18 18 17 21 24 23 20 21 19 8 9 10 10 9 13 14 7 6 10 15 18 16 13 11 13 13 11 7 9 10 10 8 12 9 11 14 15 18 25 31
Wind_Direction_500mb
334 334 338 338 336 329 313 290 273 258 255 258 259 253 266 281 276 238 225 225 222 221 223 225 230 230 228 223 218 228 230 240 233 222 209 207 219 228 238 240 229 220 213
339 342 341 342 343 338 334 322 297 274 256 251 253 253 249 262 264 251 235 215 215 220 229 232 229 228 227 225 220 221 224 232 223 223 220 221 228 232 221 227 220 216 217
343 346 336 335 340 344 336 324 314 292 275 263 254 254 257 251 254 257 258 249 238 234 239 247 244 238 226 240 217 210 235 248 224 224 225 225 221 203 208 226 216 229 223
342 338 339 342 346 348 339 328 314 301 284 274 264 257 252 252 248 247 251 244 240 252 257 259 264 243 271 263 273 190 244 221 218 216 212 208 203 208 209 213 226 225 217
337 343 347 350 345 346 348 335 326 306 292 276 274 273 261 253 253 253 250 257 251 244 256 258 259 265 250 240 246 238 222 211 211 207 205 205 205 204 206 215 216 212 214
337 345 349 343 340 340 339 332 320 312 300 287 275 275 270 258 257 259 260 251 251 254 247 243 254 249 251 252 251 236 224 217 209 213 215 207 202 200 208 215 205 215 238
332 338 340 341 341 338 339 334 323 309 313 291 287 280 275 272 262 253 255 244 239 246 244 234 242 247 241 251 248 235 222 219 211 211 209 208 208 201 200 199 202 212 232
324 331 334 340 341 342 349 348 328 319 309 314 297 300 299 284 271 256 244 243 242 243 240 235 237 248 245 253 246 232 228 226 233 217 204 202 190 181 188 190 209 224 245
329 327 328 335 345 351 350 351 351 337 313 308 295 284 295 300 327 260 229 240 250 246 239 228 224 229 240 241 242 235 226 223 218 233 199 188 176 192 199 204 213 240 267
335 328 330 338 348 352 353 357 351 345 326 308 293 284 273 268 279 292 251 253 257 237 225 218 214 225 229 236 233 232 228 224 230 200 184 175 171 174 201 208 221 240 259
329 337 335 337 346 349 359 356 351 341 330 321 297 289 280 268 259 254 269 274 276 236 216 209 205 218 221 222 219 205 187 187 187 204 217 199 191 193 204 223 236 262 277
330 335 333 332 332 342 349 348 343 337 338 338 322 296 275 270 267 270 253 255 263 229 204 197 200 207 213 210 198 191 179 190 185 177 173 175 183 193 214 233 256 269 271
334 340 337 336 342 344 343 343 348 356 6 352 336 321 309 277 259 244 259 239 215 213 175 187 194 198 191 182 181 179 176 170 155 160 170 180 191 217 242 251 253 243 229
325 333 339 338 344 345 346 346 355 356 335 354 344 339 331 342 275 233 245 214 183 173 175 174 171 179 181 167 163 161 150 151 156 163 171 203 232 249 256 255 238 227 210
348 348 338 346 355 357 353 347 353 352 1 13 19 8 333 356 324 69 204 192 174 145 131 152 142 159 152 147 145 152 156 158 166 177 200 229 241 245 241 235 224 208 215
16 352 331 333 352 358 3 356 341 345 1 12 24 18 50 49 41 198 98 106 156 165 133 133 157 151 146 149 151 155 161 167 176 170 168 183 203 214 208 203 199 204 212
359 352 306 291 325 352 346 349 351 340 332 354 23 29 42 40 56 58 92 119 125 137 130 124 114 114 134 142 147 152 159 163 155 155 160 158 132 133 199 204 209 213 214
358 356 5 320 308 315 326 348 356 358 347 21 32 36 45 53 62 75 89 95 121 130 131 126 128 132 135 137 138 137 141 150 160 169 173 181 194 208 197 209 217 215 211
318 326 344 336 316 292 316 351 25 30 44 57 48 43 46 48 62 84 94 91 102 119 127 128 127 131 128 129 137 145 153 161 174 194 210 219 224 223 224 219 218 220 222
317 311 342 349 349 110 25 34 37 43 66 63 59 59 56 58 63 70 91 100 101 103 114 125 129 131 135 137 140 150 162 188 201 226 240 243 238 235 234 237 239 236 238
311 289 309 339 339 244 263 327 325 14 52 57 50 61 62 65 69 69 75 92 100 104 117 124 128 138 145 150 160 178 191 223 255 268 268 250 237 245 245 250 257 261 256
294 301 278 292 352 256 257 315 360 26 41 22 29 41 52 52 58 61 64 84 100 96 110 133 175 178 178 198 218 236 260 272 280 278 264 232 219 235 245 263 270 254 260
290 286 254 259 266 314 260 287 197 1 3 7 357 26 28 42 42 37 53 83 108 106 121 125 162 184 210 227 244 246 245 260 281 272 275 237 229 243 251 260 256 267 263
316 291 262 237 262 266 282 273 263 269 277 292 295 318 61 14 15 15 34 98 107 165 209 239 296 269 239 224 239 266 259 257 246 258 281 284 280 266 253 256 256 257 271
289 304 244 256 260 258 262 272 271 253 246 231 271 318 294 304 330 360 3 260 239 240 240 240 255 255 237 213 228 324 268 193 257 299 283 268 270 272 279 277 267 257 252
270 286 288 259 258 269 256 253 261 264 241 237 260 286 302 237 266 330 346 323 272 253 247 247 245 231 231 234 251 254 244 234 297 319 318 238 260 310 321 311 304 263 242
Wind_Speed_850mb
44 46 37 33 32 33 31 34 38 44 41 41 39 38 34 32 24 27 33 38 41 47 51 48 47 49 49 49 43 30 26 26 29 28 30 31 30 27 24 21 16 14 12
44 35 36 32 31 30 30 31 30 35 42 45 51 47 37 47 35 25 34 37 37 43 51 55 51 51 48 49 45 34 27 27 32 34 35 32 32 29 22 20 16 14 12
33 36 36 34 34 33 31 31 31 30 33 41 47 44 43 49 56 51 40 37 44 50 45 52 61 51 53 49 39 41 19 35 37 37 36 35 32 30 25 21 18 15 13
32 32 34 32 32 38 35 31 31 30 29 32 36 40 49 48 47 56 55 35 38 36 43 41 42 48 61 71 44 37 32 42 41 40 36 34 34 31 28 24 19 16 13
24 30 30 32 36 39 38 35 31 31 32 33 34 39 46 46 44 51 58 53 46 40 38 34 34 33 35 42 50 43 40 41 41 39 37 37 35 34 30 27 22 17 13
26 29 30 32 37 37 38 39 37 29 32 33 39 41 41 53 58 61 58 63 64 49 44 38 35 40 39 37 40 48 48 45 41 43 39 37 37 36 30 27 20 14 12
28 30 32 35 36 38 42 44 38 30 24 25 34 39 43 40 45 56 58 55 59 61 52 38 40 36 35 35 38 44 50 47 54 48 45 42 38 33 27 26 18 15 13
27 28 32 36 37 38 36 40 31 29 24 18 23 28 24 25 25 30 38 44 51 53 57 53 45 36 39 37 34 40 43 45 39 44 52 44 39 30 26 22 16 13 13
24 28 28 32 34 33 38 39 34 27 25 22 20 19 12 7 16 10 16 23 34 41 44 52 43 34 29 31 33 37 46 42 37 46 67 54 34 27 24 22 16 11 12
26 28 24 29 28 31 34 35 36 32 30 30 28 26 27 32 16 12 11 13 18 29 37 49 43 35 31 28 29 28 37 43 32 29 20 32 24 21 25 21 14 14 14
26 25 26 26 22 28 28 34 35 32 32 32 27 27 29 31 33 38 36 24 16 17 30 37 39 35 29 26 30 22 22 28 28 40 30 28 26 28 23 19 15 16 15
25 26 23 22 21 25 30 33 35 30 30 27 23 26 30 38 27 26 35 34 19 9 24 31 35 31 25 31 26 30 37 25 26 34 37 33 27 24 19 18 16 15 19
27 28 16 19 19 23 29 30 32 26 25 29 28 28 29 33 32 29 32 19 21 13 14 28 29 30 25 27 31 34 27 28 30 29 27 34 19 17 20 21 21 19 23
31 16 16 17 19 24 23 24 27 28 27 34 28 22 20 23 19 24 26 30 24 21 24 24 22 27 27 32 40 36 32 34 32 28 25 18 19 22 21 23 24 24 27
16 12 14 14 18 21 22 24 24 27 27 31 34 30 19 19 7 8 18 25 35 24 36 30 33 35 43 41 34 34 31 30 25 20 16 16 16 17 17 17 18 22 23
24 20 13 13 14 21 21 27 20 22 26 33 36 39 22 28 31 15 22 27 36 33 27 30 41 43 44 39 34 28 28 25 20 17 15 11 7 10 11 12 15 21 18
22 30 20 13 12 17 19 23 21 18 20 22 23 36 32 34 34 40 31 31 28 34 48 41 40 39 42 34 32 29 26 24 26 20 14 9 5 3 9 11 13 16 19
21 20 26 14 16 13 15 18 24 18 14 9 19 24 30 36 41 38 40 34 40 33 40 45 41 38 33 30 29 29 27 23 19 16 12 9 7 5 4 7 9 12 16
14 15 19 23 15 9 9 13 19 22 17 16 18 21 25 25 30 27 33 35 29 26 28 34 36 33 31 29 28 26 23 19 16 15 14 12 10 10 10 11 11 10 13
19 12 15 21 8 3 3 9 12 17 18 22 24 25 25 24 25 27 24 25 27 29 26 24 28 27 24 22 21 19 14 11 11 12 15 19 19 18 16 16 15 17 17
19 15 11 11 7 6 2 5 7 8 12 13 17 18 23 27 23 21 18 18 15 13 18 19 19 19 18 15 12 9 5 5 6 11 15 19 18 18 20 22 22 24 23
20 18 11 8 7 5 6 7 5 9 8 7 12 17 19 20 18 18 17 11 10 10 10 7 10 12 11 8 7 8 10 10 11 14 14 16 18 13 15 15 16 25 28
16 16 14 9 6 5 5 6 6 5 7 6 3 8 11 14 15 12 9 9 8 8 7 5 5 8 9 9 11 12 12 12 13 11 9 11 20 21 21 21 14 16 22
14 13 14 13 9 7 6 7 8 4 6 5 4 4 4 11 17 13 2 2 2 1 3 2 3 5 10 11 10 12 17 14 8 9 12 14 16 20 25 24 23 22 24
16 10 17 18 17 19 19 18 14 14 10 5 9 7 10 9 10 16 8 4 8 9 8 7 6 6 7 10 6 5 4 8 3 10 14 16 13 14 17 20 23 27 25
18 18 13 18 18 17 21 24 23 20 21 19 8 9 10 10 9 13 14 7 6 10 15 18 16 13 11 13 13 11 7 9 10 10 8 12 9 11 14 15 18 25 31
Wind_Direction_850mb
334 334 338 338 336 329 313 290 273 258 255 258 259 253 266 281 276 238 225 225 222 221 223 225 230 230 228 223 218 228 230 240 233 222 209 207 219 228 238 240 229 220 213
339 342 341 342 343 338 334 322 297 274 256 251 253 253 249 262 264 251 235 215 215 220 229 232 229 228 227 225 220 221 224 232 223 223 220 221 228 232 221 227 220 216 217
343 346 336 335 340 344 336 324 314 292 275 263 254 254 257 251 254 257 258 249 238 234 239 247 244 238 226 240 217 210 235 248 224 224 225 225 221 203 208 226 216 229 223
342 338 339 342 346 348 339 328 314 301 284 274 264 257 252 252 248 247 251 244 240 252 257 259 264 243 271 263 273 190 244 221 218 216 212 208 203 208 209 213 226 225 217
337 343 347 350 345 346 348 335 326 306 292 276 274 273 261 253 253 253 250 257 251 244 256 258 259 265 250 240 246 238 222 211 211 207 205 205 205 204 206 215 216 212 214
337 345 349 343 340 340 339 332 320 312 300 287 275 275 270 258 257 259 260 251 251 254 247 243 254 249 251 252 251 236 224 217 209 213 215 207 202 200 208 215 205 215 238
332 338 340 341 341 338 339 334 323 309 313 291 287 280 275 272 262 253 255 244 239 246 244 234 242 247 241 251 248 235 222 219 211 211 209 208 208 201 200 199 202 212 232
324 331 334 340 341 342 349 348 328 319 309 314 297 300 299 284 271 256 244 243 242 243 240 235 237 248 245 253 246 232 228 226 233 217 204 202 190 181 188 190 209 224 245
329 327 328 335 345 351 350 351 351 337 313 308 295 284 295 300 327 260 229 240 250 246 239 228 224 229 240 241 242 235 226 223 218 233 199 188 176 192 199 204 213 240 267
335 328 330 338 348 352 353 357 351 345 326 308 293 284 273 268 279 292 251 253 257 237 225 218 214 225 229 236 233 232 228 224 230 200 184 175 171 174 201 208 221 240 259
329 337 335 337 346 349 359 356 351 341 330 321 297 289 280 268 259 254 269 274 276 236 216 209 205 218 221 222 219 205 187 187 187 204 217 199 191 193 204 223 236 262 277
330 335 333 332 332 342 349 348 343 337 338 338 322 296 275 270 267 270 253 255 263 229 204 197 200 207 213 210 198 191 179 190 185 177 173 175 183 193 214 233 256 269 271
334 340 337 336 342 344 343 343 348 356 6 352 336 321 309 277 259 244 259 239 215 213 175 187 194 198 191 182 181 179 176 170 155 160 170 180 191 217 242 251 253 243 229
325 333 339 338 344 345 346 346 355 356 335 354 344 339 331 342 275 233 245 214 183 173 175 174 171 179 181 167 163 161 150 151 156 163 171 203 232 249 256 255 238 227 210
348 348 338 346 355 357 353 347 353 352 1 13 19 8 333 356 324 69 204 192 174 145 131 152 142 159 152 147 145 152 156 158 166 177 200 229 241 245 241 235 224 208 215
16 352 331 333 352 358 3 356 341 345 1 12 24 18 50 49 41 198 98 106 156 165 133 133 157 151 146 149 151 155 161 167 176 170 168 183 203 214 208 203 199 204 212
359 352 306 291 325 352 346 349 351 340 332 354 23 29 42 40 56 58 92 119 125 137 130 124 114 114 134 142 147 152 159 163 155 155 160 158 132 133 199 204 209 213 214
358 356 5 320 308 315 326 348 356 358 347 21 32 36 45 53 62 75 89 95 121 130 131 126 128 132 135 137 138 137 141 150 160 169 173 181 194 208 197 209 217 215 211
318 326 344 336 316 292 316 351 25 30 44 57 48 43 46 48 62 84 94 91 102 119 127 128 127 131 128 129 137 145 153 161 174 194 210 219 224 223 224 219 218 220 222
317 311 342 349 349 110 25 34 37 43 66 63 59 59 56 58 63 70 91 100 101 103 114 125 129 131 135 137 140 150 162 188 201 226 240 243 238 235 234 237 239 236 238
311 289 309 339 339 244 263 327 325 14 52 57 50 61 62 65 69 69 75 92 100 104 117 124 128 138 145 150 160 178 191 223 255 268 268 250 237 245 245 250 257 261 256
294 301 278 292 352 256 257 315 360 26 41 22 29 41 52 52 58 61 64 84 100 96 110 133 175 178 178 198 218 236 260 272 280 278 264 232 219 235 245 263 270 254 260
290 286 254 259 266 314 260 287 197 1 3 7 357 26 28 42 42 37 53 83 108 106 121 125 162 184 210 227 244 246 245 260 281 272 275 237 229 243 251 260 256 267 263
316 291 262 237 262 266 282 273 263 269 277 292 295 318 61 14 15 15 34 98 107 165 209 239 296 269 239 224 239 266 259 257 246 258 281 284 280 266 253 256 256 257 271
289 304 244 256 260 258 262 272 271 253 246 231 271 318 294 304 330 360 3 260 239 240 240 240 255 255 237 213 228 324 268 193 257 299 283 268 270 272 279 277 267 257 252
270 286 288 259 258 269 256 253 261 264 241 237 260 286 302 237 266 330 346 323 272 253 247 247 245 231 231 234 251 254 244 234 297 319 318 238 260 310 321 311 304 263 242